RYR6RC EGNM-LFMK

Flight info

Callsign RYR6RC
Flight time N/A
Altitude 37000
Route POL2X POL Y70 CROFT UL612 RESMI UN857 DISAK DCT NARAK
Aircraft B738/M-SDE2E3FGHIRWXY/LB1

Departure

Time 2026-05-04 17:34
Airport Leeds Bradford Airport (EGNM)

Arrival

Time N/A
Airport Carcassonne Salvaza Airport (LFMK)
Time Latitude Longitude Altitude Speed Heading
2026-05-04 16:37 53.86868 -1.65621 664 ft 0 kts
2026-05-04 17:22 53.86866 -1.65621 664 ft 2 kts
2026-05-04 17:23 53.86815 -1.65566 664 ft 1 kts 271°
2026-05-04 17:23 53.86815 -1.65560 664 ft 1 kts 271°
2026-05-04 17:26 53.86814 -1.65739 669 ft 7 kts 269°
2026-05-04 17:27 53.86812 -1.65926 674 ft 13 kts 270°
2026-05-04 17:27 53.86857 -1.66160 678 ft 10 kts 315°
2026-05-04 17:28 53.86959 -1.66341 679 ft 4 kts 299°
2026-05-04 17:29 53.86979 -1.66401 680 ft 14 kts 300°
2026-05-04 17:29 53.87166 -1.66937 682 ft 14 kts 316°
2026-05-04 17:30 53.87389 -1.67023 684 ft 5 kts 318°
2026-05-04 17:31 53.87392 -1.67109 690 ft 0 kts 232°
2026-05-04 17:33 53.87316 -1.67166 687 ft 0 kts 137°
2026-05-04 17:34 53.86199 -1.65463 762 ft 163 kts 138°
2026-05-04 17:34 53.85415 -1.64268 1504 ft 160 kts 138°
2026-05-04 17:35 53.82357 -1.60328 3273 ft 209 kts 167°
2026-05-04 17:35 53.79665 -1.61670 4368 ft 220 kts 231°
2026-05-04 17:35 53.79042 -1.64011 5015 ft 221 kts 258°
2026-05-04 17:36 53.78774 -1.66600 5638 ft 226 kts 261°
2026-05-04 17:36 53.78527 -1.69267 6244 ft 234 kts 261°
2026-05-04 17:36 53.78266 -1.72009 6847 ft 246 kts 261°
2026-05-04 17:36 53.77987 -1.75029 6996 ft 269 kts 261°
2026-05-04 17:37 53.77684 -1.78144 7016 ft 269 kts 261°
2026-05-04 17:37 53.77371 -1.81273 7027 ft 271 kts 260°
2026-05-04 17:37 53.77054 -1.84416 7036 ft 271 kts 260°
2026-05-04 17:37 53.76737 -1.87552 7041 ft 271 kts 260°
2026-05-04 17:38 53.76422 -1.90640 7034 ft 272 kts 260°
2026-05-04 17:38 53.76100 -1.93791 7029 ft 273 kts 260°
2026-05-04 17:38 53.75776 -1.96954 7032 ft 272 kts 260°
2026-05-04 17:38 53.75459 -2.00060 7029 ft 272 kts 260°
2026-05-04 17:39 53.74808 -2.06346 7107 ft 267 kts 260°
2026-05-04 17:39 53.74497 -2.09348 7784 ft 267 kts 259°
2026-05-04 17:39 53.73974 -2.12395 8412 ft 274 kts 248°
2026-05-04 17:40 53.73192 -2.15369 9047 ft 279 kts 245°
2026-05-04 17:40 53.72357 -2.18337 9668 ft 280 kts 245°
2026-05-04 17:40 53.71520 -2.21320 10290 ft 282 kts 245°
2026-05-04 17:40 53.70706 -2.24268 10910 ft 288 kts 246°
2026-05-04 17:41 53.69856 -2.27383 11552 ft 297 kts 246°
2026-05-04 17:41 53.68998 -2.30549 12192 ft 305 kts 246°
2026-05-04 17:41 53.68109 -2.33847 12820 ft 312 kts 246°
2026-05-04 17:41 53.67201 -2.37222 13447 ft 319 kts 246°
2026-05-04 17:42 53.66273 -2.40669 14096 ft 326 kts 246°
2026-05-04 17:42 53.65324 -2.44188 14725 ft 332 kts 246°
2026-05-04 17:42 53.64009 -2.47426 15318 ft 341 kts 222°
2026-05-04 17:42 53.61934 -2.49370 15967 ft 347 kts 198°
2026-05-04 17:43 53.59538 -2.50050 16594 ft 354 kts 184°
2026-05-04 17:43 53.57056 -2.49764 17067 ft 364 kts 167°
2026-05-04 17:43 53.54642 -2.48326 17600 ft 372 kts 158°
2026-05-04 17:43 53.52282 -2.46583 18099 ft 378 kts 157°
2026-05-04 17:44 53.49854 -2.44785 18585 ft 385 kts 157°
2026-05-04 17:44 53.47364 -2.42989 19006 ft 394 kts 158°
2026-05-04 17:44 53.44871 -2.41218 19561 ft 397 kts 158°
2026-05-04 17:44 53.42357 -2.39446 20163 ft 399 kts 158°
2026-05-04 17:45 53.39784 -2.37637 20732 ft 402 kts 158°
2026-05-04 17:45 53.37197 -2.35820 21255 ft 405 kts 158°
2026-05-04 17:45 53.34584 -2.33983 21772 ft 408 kts 158°
2026-05-04 17:45 53.32268 -2.32356 22218 ft 410 kts 157°
2026-05-04 17:46 53.29669 -2.30532 22714 ft 413 kts 157°
2026-05-04 17:46 53.27003 -2.28664 23182 ft 416 kts 157°
2026-05-04 17:46 53.24322 -2.26791 23659 ft 419 kts 158°
2026-05-04 17:46 53.21620 -2.24925 24116 ft 421 kts 158°
2026-05-04 17:47 53.18899 -2.23058 24555 ft 424 kts 158°
2026-05-04 17:47 53.16168 -2.21185 24989 ft 426 kts 158°
2026-05-04 17:47 53.13422 -2.19274 25409 ft 428 kts 156°
2026-05-04 17:47 53.10704 -2.17217 25817 ft 431 kts 155°
2026-05-04 17:48 53.07991 -2.15064 26202 ft 433 kts 154°
2026-05-04 17:48 53.05282 -2.12883 26644 ft 433 kts 154°
2026-05-04 17:48 53.02577 -2.10703 27174 ft 431 kts 154°
2026-05-04 17:48 52.99921 -2.08576 27752 ft 428 kts 154°
2026-05-04 17:49 52.97267 -2.06465 28282 ft 425 kts 154°
2026-05-04 17:49 52.94638 -2.04386 28722 ft 425 kts 154°
2026-05-04 17:49 52.91970 -2.02285 29181 ft 423 kts 154°
2026-05-04 17:49 52.89343 -2.00223 29652 ft 422 kts 154°
2026-05-04 17:50 52.86698 -1.98151 30156 ft 419 kts 155°
2026-05-04 17:50 52.84069 -1.96096 30634 ft 417 kts 155°
2026-05-04 17:50 52.81450 -1.94052 31014 ft 416 kts 155°
2026-05-04 17:50 52.78826 -1.92006 31395 ft 416 kts 155°
2026-05-04 17:51 52.76247 -1.89997 31805 ft 415 kts 155°
2026-05-04 17:51 52.73638 -1.87969 32190 ft 413 kts 155°
2026-05-04 17:51 52.71040 -1.85952 32565 ft 412 kts 155°
2026-05-04 17:51 52.68452 -1.83944 32955 ft 410 kts 155°
2026-05-04 17:52 52.65981 -1.82027 33305 ft 409 kts 155°
2026-05-04 17:52 52.63431 -1.80054 33614 ft 409 kts 155°
2026-05-04 17:52 52.60850 -1.78060 33936 ft 409 kts 155°
2026-05-04 17:52 52.58281 -1.76078 34289 ft 407 kts 155°
2026-05-04 17:53 52.55714 -1.74099 34563 ft 407 kts 155°
2026-05-04 17:53 52.53143 -1.72121 34777 ft 408 kts 155°
2026-05-04 17:53 52.50560 -1.70135 34974 ft 410 kts 155°
2026-05-04 17:53 52.47995 -1.68164 35248 ft 410 kts 155°
2026-05-04 17:54 52.45454 -1.66214 35573 ft 408 kts 155°
2026-05-04 17:54 52.42882 -1.64243 35792 ft 409 kts 155°
2026-05-04 17:54 52.40298 -1.62267 35965 ft 411 kts 155°
2026-05-04 17:54 52.37704 -1.60287 36198 ft 411 kts 155°
2026-05-04 17:55 52.35118 -1.58314 36450 ft 410 kts 155°
2026-05-04 17:55 52.32524 -1.56337 36612 ft 412 kts 155°
2026-05-04 17:55 52.29930 -1.54362 36877 ft 410 kts 155°
2026-05-04 17:55 52.27348 -1.52400 37044 ft 411 kts 155°
2026-05-04 17:56 52.22186 -1.48485 37027 ft 409 kts 155°
2026-05-04 17:56 52.17082 -1.44623 37031 ft 401 kts 156°
2026-05-04 17:57 52.12040 -1.40818 37035 ft 401 kts 156°
2026-05-04 17:57 52.06970 -1.37000 37029 ft 402 kts 156°
2026-05-04 17:58 52.02717 -1.33806 37028 ft 402 kts 156°
2026-05-04 17:58 51.97067 -1.29575 37030 ft 402 kts 156°
2026-05-04 17:59 51.92225 -1.25957 37028 ft 403 kts 156°
2026-05-04 18:00 51.84522 -1.20218 37020 ft 404 kts 156°
2026-05-04 18:00 51.79428 -1.16439 37018 ft 405 kts 156°
2026-05-04 18:01 51.74306 -1.12646 37019 ft 404 kts 156°
2026-05-04 18:01 51.69247 -1.08905 37019 ft 405 kts 156°
2026-05-04 18:02 51.61611 -1.03280 37016 ft 404 kts 156°
2026-05-04 18:02 51.56613 -0.99610 37017 ft 403 kts 156°
2026-05-04 18:03 51.52394 -0.96515 37020 ft 402 kts 156°
2026-05-04 18:03 51.47316 -0.92802 37019 ft 402 kts 156°
2026-05-04 18:04 51.42317 -0.89158 37017 ft 401 kts 156°
2026-05-04 18:05 51.34897 -0.83767 37019 ft 400 kts 156°
2026-05-04 18:05 51.29928 -0.80167 37020 ft 400 kts 156°
2026-05-04 18:06 51.22330 -0.74670 37018 ft 400 kts 156°
2026-05-04 18:06 51.17260 -0.71016 37020 ft 400 kts 156°
2026-05-04 18:07 51.12191 -0.67370 37019 ft 400 kts 156°
2026-05-04 18:07 51.07147 -0.63753 37017 ft 400 kts 157°
2026-05-04 18:08 51.02328 -0.59396 37014 ft 401 kts 147°
2026-05-04 18:08 50.97706 -0.54384 37005 ft 402 kts 147°
2026-05-04 18:09 50.88580 -0.44599 37001 ft 404 kts 147°
2026-05-04 18:10 50.83901 -0.39644 36999 ft 405 kts 147°
2026-05-04 18:10 50.79210 -0.34684 36991 ft 406 kts 147°
2026-05-04 18:11 50.74536 -0.29761 36992 ft 406 kts 147°
2026-05-04 18:11 50.69832 -0.24817 36990 ft 406 kts 147°
2026-05-04 18:12 50.65122 -0.19879 36990 ft 406 kts 147°
2026-05-04 18:12 50.60423 -0.14963 36991 ft 406 kts 147°
2026-05-04 18:13 50.55721 -0.10052 36998 ft 405 kts 147°
2026-05-04 18:14 50.48674 -0.02712 37000 ft 405 kts 147°
2026-05-04 18:14 50.43972 0.02168 36998 ft 404 kts 148°
2026-05-04 18:15 50.34649 0.11852 36987 ft 402 kts 148°
2026-05-04 18:16 50.30002 0.16674 36987 ft 400 kts 148°
2026-05-04 18:16 50.25366 0.21474 36989 ft 399 kts 148°
2026-05-04 18:17 50.18435 0.28623 36990 ft 397 kts 148°
2026-05-04 18:18 50.11549 0.35684 36991 ft 396 kts 149°
2026-05-04 18:18 50.06956 0.40385 36992 ft 395 kts 149°
2026-05-04 18:19 50.00063 0.47420 36993 ft 396 kts 149°
2026-05-04 18:19 49.95445 0.52115 36993 ft 397 kts 149°
2026-05-04 18:20 49.90809 0.56824 36989 ft 398 kts 149°
2026-05-04 18:20 49.86166 0.61529 36989 ft 399 kts 148°
2026-05-04 18:21 49.81764 0.66819 36985 ft 401 kts 143°
2026-05-04 18:21 49.77444 0.72323 36981 ft 402 kts 143°
2026-05-04 18:22 49.73141 0.77776 36983 ft 402 kts 143°
2026-05-04 18:22 49.68868 0.83142 36981 ft 402 kts 144°
2026-05-04 18:23 49.64512 0.88586 36981 ft 402 kts 144°
2026-05-04 18:23 49.60162 0.94009 36972 ft 401 kts 144°
2026-05-04 18:24 49.55826 0.99402 36972 ft 401 kts 144°
2026-05-04 18:24 49.51482 1.04794 36972 ft 400 kts 144°
2026-05-04 18:25 49.47146 1.10163 36971 ft 400 kts 144°
2026-05-04 18:25 49.42843 1.15479 36973 ft 399 kts 144°
2026-05-04 18:26 49.38519 1.20805 36964 ft 399 kts 144°
2026-05-04 18:26 49.34188 1.26129 36964 ft 398 kts 144°
2026-05-04 18:27 49.29861 1.31437 36960 ft 398 kts 144°
2026-05-04 18:27 49.25538 1.36734 36962 ft 397 kts 144°
2026-05-04 18:28 49.21226 1.42001 36961 ft 396 kts 144°
2026-05-04 18:28 49.16914 1.47258 36969 ft 396 kts 145°
2026-05-04 18:29 49.12624 1.52474 36962 ft 397 kts 145°
2026-05-04 18:29 49.08311 1.57708 36963 ft 397 kts 145°
2026-05-04 18:30 49.01814 1.65569 36954 ft 398 kts 145°
2026-05-04 18:31 48.97470 1.70806 36952 ft 398 kts 145°
2026-05-04 18:31 48.93131 1.76029 36944 ft 399 kts 145°
2026-05-04 18:32 48.88773 1.81266 36945 ft 399 kts 145°
2026-05-04 18:32 48.84438 1.86464 36947 ft 400 kts 145°
2026-05-04 18:33 48.80084 1.91668 36948 ft 400 kts 145°
2026-05-04 18:33 48.75700 1.96900 36940 ft 401 kts 146°
2026-05-04 18:34 48.71313 2.02122 36945 ft 401 kts 146°
2026-05-04 18:34 48.66922 2.07338 36934 ft 401 kts 146°
2026-05-04 18:35 48.62545 2.12528 36938 ft 400 kts 146°
2026-05-04 18:35 48.57994 2.17233 36926 ft 391 kts 164°
2026-05-04 18:35 48.55379 2.18150 36934 ft 384 kts 178°
2026-05-04 18:36 48.52738 2.17986 36946 ft 379 kts 192°
2026-05-04 18:36 48.47588 2.16324 36938 ft 378 kts 194°
2026-05-04 18:37 48.42453 2.14564 36932 ft 379 kts 194°
2026-05-04 18:37 48.37333 2.12894 36936 ft 379 kts 193°
2026-05-04 18:38 48.32165 2.11236 36937 ft 380 kts 193°
2026-05-04 18:38 48.26915 2.10323 36939 ft 383 kts 180°
2026-05-04 18:39 48.21609 2.11381 36936 ft 386 kts 174°
2026-05-04 18:39 48.16312 2.12560 36932 ft 385 kts 174°
2026-05-04 18:40 48.10991 2.13061 36937 ft 382 kts 186°
2026-05-04 18:40 48.05693 2.12468 36939 ft 382 kts 186°
2026-05-04 18:41 48.00416 2.11858 36935 ft 383 kts 186°
2026-05-04 18:41 47.95103 2.11270 36937 ft 383 kts 186°
2026-05-04 18:42 47.89769 2.10696 36936 ft 384 kts 186°
2026-05-04 18:42 47.84422 2.10126 36936 ft 384 kts 186°
2026-05-04 18:43 47.79118 2.09565 36934 ft 384 kts 186°
2026-05-04 18:43 47.73783 2.09002 36936 ft 384 kts 186°
2026-05-04 18:44 47.68454 2.08439 36936 ft 384 kts 186°
2026-05-04 18:44 47.63125 2.07877 36936 ft 383 kts 186°
2026-05-04 18:45 47.57805 2.07320 36934 ft 383 kts 186°
2026-05-04 18:45 47.52490 2.06764 36929 ft 382 kts 186°
2026-05-04 18:46 47.47183 2.06211 36928 ft 382 kts 186°
2026-05-04 18:46 47.41890 2.05658 36927 ft 381 kts 186°
2026-05-04 18:47 47.36609 2.05107 36923 ft 380 kts 186°
2026-05-04 18:47 47.31340 2.04558 36918 ft 379 kts 186°
2026-05-04 18:48 47.26119 2.04016 36912 ft 378 kts 186°
2026-05-04 18:48 47.20880 2.03475 36914 ft 377 kts 186°
2026-05-04 18:49 47.15646 2.02936 36917 ft 376 kts 186°
2026-05-04 18:49 47.10437 2.02400 36919 ft 375 kts 186°
2026-05-04 18:50 47.06103 2.01953 36914 ft 375 kts 186°
2026-05-04 18:50 47.00051 2.01330 36914 ft 375 kts 187°
2026-05-04 18:51 46.94854 2.00799 36918 ft 374 kts 187°
2026-05-04 18:51 46.90501 2.00354 36918 ft 374 kts 187°
2026-05-04 18:52 46.85339 1.99824 36920 ft 374 kts 186°
2026-05-04 18:52 46.80144 1.99294 36922 ft 374 kts 186°
2026-05-04 18:53 46.74951 1.98767 36919 ft 374 kts 186°
2026-05-04 18:53 46.69756 1.98241 36919 ft 373 kts 186°
2026-05-04 18:54 46.64578 1.97717 36926 ft 373 kts 186°
2026-05-04 18:54 46.59399 1.97190 36906 ft 373 kts 187°
2026-05-04 18:55 46.54223 1.96668 36921 ft 373 kts 187°
2026-05-04 18:55 46.46504 1.95893 36921 ft 372 kts 187°
2026-05-04 18:56 46.41334 1.95374 36918 ft 371 kts 187°
2026-05-04 18:56 46.36179 1.94858 36915 ft 371 kts 187°
2026-05-04 18:57 46.31039 1.94344 36919 ft 370 kts 187°
2026-05-04 18:57 46.25907 1.93831 36919 ft 369 kts 187°
2026-05-04 18:58 46.20782 1.93321 36922 ft 369 kts 187°
2026-05-04 18:58 46.15655 1.92809 36915 ft 368 kts 187°
2026-05-04 18:59 46.10577 1.92306 36909 ft 368 kts 187°
2026-05-04 18:59 46.05465 1.91799 36921 ft 368 kts 187°
2026-05-04 19:00 46.00353 1.91293 36914 ft 368 kts 187°
2026-05-04 19:00 45.95242 1.90785 36918 ft 369 kts 187°
2026-05-04 19:01 45.90141 1.90282 36920 ft 369 kts 187°
2026-05-04 19:01 45.85013 1.89779 36915 ft 369 kts 187°
2026-05-04 19:02 45.79917 1.89279 36924 ft 369 kts 187°
2026-05-04 19:02 45.74801 1.88777 36921 ft 368 kts 187°
2026-05-04 19:03 45.69681 1.88276 36914 ft 369 kts 187°
2026-05-04 19:03 45.64566 1.87776 36929 ft 368 kts 187°
2026-05-04 19:04 45.59452 1.87277 36928 ft 369 kts 187°
2026-05-04 19:04 45.54333 1.86780 36926 ft 368 kts 187°
2026-05-04 19:05 45.49207 1.86282 36921 ft 369 kts 187°
2026-05-04 19:05 45.44087 1.85784 36933 ft 369 kts 187°
2026-05-04 19:06 45.38958 1.85287 36930 ft 369 kts 187°
2026-05-04 19:06 45.33824 1.84791 36926 ft 370 kts 187°
2026-05-04 19:07 45.28692 1.84298 36933 ft 370 kts 187°
2026-05-04 19:07 45.23585 1.83806 36929 ft 370 kts 187°
2026-05-04 19:08 45.18470 1.83314 36938 ft 370 kts 187°
2026-05-04 19:08 45.13341 1.82822 36937 ft 369 kts 187°
2026-05-04 19:09 45.08210 1.82330 36939 ft 369 kts 187°
2026-05-04 19:09 45.03081 1.81839 36937 ft 369 kts 187°
2026-05-04 19:10 44.97988 1.81353 36922 ft 369 kts 187°
2026-05-04 19:10 44.92865 1.80866 36938 ft 369 kts 187°
2026-05-04 19:11 44.87747 1.80379 36933 ft 369 kts 187°
2026-05-04 19:11 44.82632 1.79892 36941 ft 368 kts 187°
2026-05-04 19:12 44.74970 1.79167 36946 ft 368 kts 187°
2026-05-04 19:13 44.69862 1.78685 36945 ft 368 kts 187°
2026-05-04 19:13 44.64762 1.78204 36944 ft 368 kts 187°
2026-05-04 19:14 44.59658 1.77724 36947 ft 367 kts 187°
2026-05-04 19:14 44.54557 1.77244 36948 ft 368 kts 187°
2026-05-04 19:15 44.49444 1.76764 36942 ft 368 kts 187°
2026-05-04 19:15 44.44335 1.76286 36943 ft 368 kts 187°
2026-05-04 19:16 44.39268 1.75812 36945 ft 367 kts 187°
2026-05-04 19:16 44.34173 1.75335 36947 ft 366 kts 187°
2026-05-04 19:17 44.29084 1.75030 36949 ft 368 kts 181°
2026-05-04 19:17 44.23974 1.76064 36949 ft 371 kts 176°
2026-05-04 19:18 44.18915 1.77223 36960 ft 371 kts 176°
2026-05-04 19:18 44.13854 1.78357 36951 ft 371 kts 176°
2026-05-04 19:19 44.08758 1.79483 36956 ft 371 kts 176°
2026-05-04 19:19 44.03661 1.80604 36963 ft 371 kts 176°
2026-05-04 19:20 43.98556 1.81725 36966 ft 371 kts 176°
2026-05-04 19:20 43.93475 1.82754 36966 ft 370 kts 179°
2026-05-04 19:21 43.88358 1.83402 36963 ft 369 kts 180°
2026-05-04 19:21 43.83239 1.83996 36960 ft 369 kts 180°
2026-05-04 19:22 43.78118 1.84620 36962 ft 369 kts 180°
2026-05-04 19:22 43.72986 1.85262 36962 ft 369 kts 180°
2026-05-04 19:23 43.67864 1.85908 36965 ft 370 kts 180°
2026-05-04 19:23 43.62741 1.86556 36959 ft 370 kts 180°
2026-05-04 19:24 43.57644 1.87197 36967 ft 370 kts 180°
2026-05-04 19:24 43.52513 1.87841 36960 ft 370 kts 180°
2026-05-04 19:25 43.47379 1.88487 36965 ft 370 kts 180°
2026-05-04 19:25 43.42244 1.89132 36965 ft 371 kts 180°
2026-05-04 19:26 43.37094 1.89777 36960 ft 372 kts 180°
2026-05-04 19:26 43.31938 1.90421 36952 ft 373 kts 179°
2026-05-04 19:26 43.29393 1.91273 36947 ft 384 kts 162°
2026-05-04 19:27 43.27087 1.93211 36951 ft 397 kts 146°
2026-05-04 19:27 43.25250 1.96030 36953 ft 411 kts 130°
2026-05-04 19:27 43.24004 1.99614 36940 ft 427 kts 110°
2026-05-04 19:28 43.23247 2.07812 36945 ft 437 kts 101°
2026-05-04 19:28 43.22647 2.16125 36944 ft 439 kts 102°
2026-05-04 19:28 43.22594 2.20338 36919 ft 450 kts 86°
2026-05-04 19:29 43.23453 2.24492 36953 ft 459 kts 68°
2026-05-04 19:29 43.26174 2.32446 36923 ft 458 kts 80°
2026-05-04 19:29 43.26546 2.36711 36967 ft 446 kts 97°
2026-05-04 19:30 43.26425 2.40946 36948 ft 447 kts 98°
2026-05-04 19:30 43.25391 2.49188 36955 ft 428 kts 124°
2026-05-04 19:30 43.23787 2.52528 36937 ft 413 kts 141°
2026-05-04 19:31 43.21658 2.55046 36952 ft 398 kts 155°
2026-05-04 19:31 43.19184 2.56494 36908 ft 379 kts 178°
2026-05-04 19:31 43.16586 2.56786 36940 ft 377 kts 175°
2026-05-04 19:31 43.14147 2.58150 36967 ft 397 kts 151°
2026-05-04 19:32 43.12192 2.60939 36916 ft 421 kts 127°
2026-05-04 19:32 43.11147 2.64756 36946 ft 440 kts 104°
2026-05-04 19:32 43.11220 2.68998 36931 ft 456 kts 79°
2026-05-04 19:32 43.12451 2.73015 36929 ft 463 kts 56°
2026-05-04 19:33 43.14671 2.76190 36921 ft 462 kts 32°
2026-05-04 19:33 43.17535 2.78032 36933 ft 453 kts
2026-05-04 19:33 43.20618 2.78315 36932 ft 437 kts 344°